Lorton, VA

11:18 PM EST on February 27, 2017 (GMT -0500)
Davison Army Air Field

Weather History for KDAA - April, 2013

Change the Weather History Date:

Tuesday, April 2, 2013

  Actual Average Record
Temperature  
Mean Temperature 40 °F -  
Max Temperature 52 °F 62 °F 84 °F (2007)
Min Temperature 28 °F 40 °F 28 °F (2013)
Degree Days  
Heating Degree Days 26    
Moisture  
Dew Point 13 °F    
Average Humidity 31    
Maximum Humidity 62    
Minimum Humidity 19    
Precipitation  
Precipitation 0.00 in - - ()
Sea Level Pressure  
Sea Level Pressure 30.10 in    
Wind  
Wind Speed 8 mph (WNW)    
Max Wind Speed 16 mph    
Max Gust Speed 29 mph    
Visibility 10 miles    
Events      
Averages and records for this station are not official NWS values.
T = Trace of Precipitation, MM = Missing Value Source: NWS Daily Summary

Daily Weather History Graph

Daily Weather History Graph

Search for Another Location

Airport or City:

Trip Planner

Search our weather history database for the weather conditions in past years. The results will help you decide how hot, cold, wet, or windy it might be!

Date:

Astronomy

Apr. 02, 2013 Rise Set
Actual Time 6:51 AM EDT 7:33 PM EDT
Civil Twilight 6:24 AM EDT 8:00 PM EDT
Nautical Twilight 5:53 AM EDT 8:32 PM EDT
Astronomical Twilight 5:20 AM EDT 9:04 PM EDT
Moon 1:33 AM EDT (4/2) 11:42 AM EDT (4/2)
Length of Visible Light 13h 35m
Length of Day
12h 41m
Waning Gibbous, 56% of the Moon is Illuminated
Apr 2
Waning Gibbous
Apr 3
Last Quarter
Apr 10
New
Apr 18
First Quarter
Apr 25
Full

Hourly Weather History & Observations

Time (EDT) Temp. Windchill Dew Point Humidity Pressure Visibility Wind Dir Wind Speed Gust Speed Precip Events Conditions
12:55 AM 42.4 °F 37.5 °F 18.1 °F 38% 30.04 in 10.0 mi NW 8.1 mph - N/A   Mostly Cloudy
1:55 AM 41.2 °F 37.3 °F 16.2 °F 36% 30.04 in 10.0 mi NW 5.8 mph - N/A   Clear
2:55 AM 36.0 °F - 16.7 °F 46% 30.04 in 10.0 mi Calm Calm - N/A   Clear
3:55 AM 30.0 °F - 17.1 °F 59% 30.04 in 10.0 mi Calm Calm - N/A   Clear
4:55 AM 28.9 °F - 16.7 °F 60% 30.05 in 10.0 mi Calm Calm - N/A   Clear
5:55 AM 28.2 °F - 16.7 °F 62% 30.06 in 10.0 mi Calm Calm - N/A   Clear
6:55 AM 36.7 °F 34.1 °F 14.9 °F 41% 30.09 in 10.0 mi West 3.5 mph - N/A   Clear
7:55 AM 39.0 °F 31.0 °F 14.2 °F 36% 30.14 in 10.0 mi WNW 13.8 mph - N/A   Clear
8:55 AM 42.4 °F 36.5 °F 13.3 °F 31% 30.15 in 10.0 mi WNW 10.4 mph - N/A   Clear
9:55 AM 43.9 °F 37.5 °F 13.3 °F 29% 30.14 in 10.0 mi WNW 12.7 mph 25.3 mph N/A   Clear
10:55 AM 46.6 °F - 14.4 °F 27% 30.14 in 10.0 mi West 12.7 mph 18.4 mph N/A   Clear
11:55 AM 47.3 °F - 10.8 °F 23% 30.13 in 10.0 mi WSW 13.8 mph 24.2 mph N/A   Clear
12:55 PM 48.9 °F - 8.2 °F 19% 30.11 in 10.0 mi WSW 15.0 mph 27.6 mph N/A   Clear
1:55 PM 50.2 °F - 10.6 °F 20% 30.09 in 10.0 mi West 12.7 mph 20.7 mph N/A   Clear
2:55 PM 50.7 °F - 10.6 °F 20% 30.08 in 10.0 mi WNW 10.4 mph 28.8 mph N/A   Clear
3:40 PM 51.8 °F - 10.4 °F 19% 30.07 in 10.0 mi WNW 16.1 mph 20.7 mph N/A   Clear
3:55 PM 50.9 °F - 9.9 °F 19% 30.06 in 10.0 mi West 13.8 mph 21.9 mph N/A   Clear
4:55 PM 51.3 °F - 10.0 °F 19% 30.07 in 10.0 mi NNW 11.5 mph 21.9 mph N/A   Clear
5:55 PM 50.0 °F - 10.0 °F 20% 30.09 in 10.0 mi NW 16.1 mph 21.9 mph N/A   Clear
6:55 PM 48.4 °F - 10.8 °F 22% 30.11 in 10.0 mi WNW 13.8 mph - N/A   Clear
7:55 PM 45.9 °F 39.7 °F 10.4 °F 24% 30.14 in 10.0 mi NW 13.8 mph - N/A   Clear
8:55 PM 43.7 °F 38.6 °F 10.2 °F 26% 30.15 in 10.0 mi NW 9.2 mph - N/A   Clear
9:55 PM 42.6 °F 39.0 °F 10.8 °F 27% 30.17 in 10.0 mi NW 5.8 mph - N/A   Clear
10:55 PM 39.0 °F - 11.8 °F 33% 30.19 in 10.0 mi Calm Calm - N/A   Clear
11:55 PM 40.8 °F 35.0 °F 11.7 °F 30% 30.19 in 10.0 mi NW 9.2 mph - N/A   Clear